This is the latest recevied weather packets stored in our database for station/object KD8FRE. If no packets are shown the sender has not sent any weather packets the latest 1 day(s).
| Time | Temp. | Humidity | Pressure | Rain* | Wind** | Luminosity | Snow |
|---|---|---|---|---|---|---|---|
| 1778026851 | 10.56° C | 44% | 1008.3 hPa | 0 mm | 1.79 m/s, 263° | 2 W/m² | - |
| 1778026547 | 10.56° C | 42% | 1008.5 hPa | 0 mm | 2.24 m/s, 285° | 2 W/m² | - |
| 1778026244 | 10.56° C | 42% | 1008.6 hPa | 0 mm | 1.34 m/s, 284° | 4 W/m² | - |
| 1778025942 | 11.11° C | 42% | 1008.6 hPa | 0 mm | 3.58 m/s, 288° | 5 W/m² | - |
| 1778025639 | 11.11° C | 42% | 1008.5 hPa | 0 mm | 1.79 m/s, 288° | 6 W/m² | - |
| 1778025337 | 11.11° C | 41% | 1008.2 hPa | 0 mm | 2.24 m/s, 277° | 6 W/m² | - |
| 1778025034 | 11.11° C | 40% | 1008.3 hPa | 0 mm | 2.68 m/s, 306° | 7 W/m² | - |
| 1778024731 | 11.11° C | 40% | 1008.1 hPa | 0 mm | 2.24 m/s, 314° | 14 W/m² | - |
| 1778024427 | 11.11° C | 39% | 1008.1 hPa | 0 mm | 3.13 m/s, 274° | 11 W/m² | - |
| 1778024125 | 11.11° C | 39% | 1007.9 hPa | 0 mm | 1.79 m/s, 274° | 14 W/m² | - |
| 1778023822 | 11.11° C | 39% | 1008 hPa | 0 mm | 3.13 m/s, 271° | 23 W/m² | - |
| 1778023520 | 11.11° C | 39% | 1007.9 hPa | 0 mm | 1.79 m/s, 287° | 22 W/m² | - |
| 1778023217 | 11.11° C | 40% | 1008 hPa | 0 mm | 2.24 m/s, 267° | 25 W/m² | - |
| 1778022914 | 11.67° C | 41% | 1008 hPa | 0 mm | 1.79 m/s, 220° | 26 W/m² | - |
| 1778022613 | 11.67° C | 40% | 1007.9 hPa | 0 mm | 2.24 m/s, 282° | 33 W/m² | - |
| 1778022309 | 11.67° C | 39% | 1007.9 hPa | 0 mm | 3.13 m/s, 292° | 33 W/m² | - |
| 1778022006 | 11.67° C | 41% | 1007.9 hPa | 0 mm | 1.34 m/s, 263° | 33 W/m² | - |
| 1778021703 | 11.67° C | 43% | 1007.9 hPa | 0 mm | 1.79 m/s, 263° | 44 W/m² | - |
| 1778021399 | 11.67° C | 41% | 1007.8 hPa | 0 mm | 2.68 m/s, 310° | 50 W/m² | - |
| 1778021096 | 11.67° C | 44% | 1007.8 hPa | 0 mm | 2.68 m/s, 308° | 45 W/m² | - |
| 1778020793 | 11.67° C | 48% | 1007.8 hPa | 0 mm | 2.24 m/s, 245° | 47 W/m² | - |
| 1778020490 | 11.67° C | 50% | 1007.9 hPa | 0 mm | 1.34 m/s, 264° | 53 W/m² | - |
| 1778020186 | 11.67° C | 48% | 1007.9 hPa | 0 mm | 2.24 m/s, 271° | 59 W/m² | - |
| 1778019883 | 11.67° C | 49% | 1008 hPa | 0 mm | 1.34 m/s, 303° | 57 W/m² | - |
| 1778019578 | 11.67° C | 47% | 1008.1 hPa | 0 mm | 2.68 m/s, 275° | 65 W/m² | - |
* Rain latest hour (hover to see other rain measurements)
** Current wind speed in m/s (hover to see current wind gust speed)